Regional Weather Roundup
Issued by NWS

Home | Current Version | Previous Version | Graphics & Text | Print | Product List | Glossary On
Versions: 1 2 3 4 5 6 7 8 9 10 11 12 13 14 15 16 17 18 19 20 21 22 23 24 25 26 27 28 29 30 31 32 33 34 35 36 37 38 39 40 41 42 43 44 45 46 47 48 49 50
000
ASUS43 KFSD 201002
RWRSD

WEATHER ROUNDUP FOR SOUTH DAKOTA
NATIONAL WEATHER SERVICE SIOUX FALLS SD
400 AM CST TUE FEB 20 2018

NOTE: "FAIR" INDICATES FEW OR NO CLOUDS BELOW 12,000 FEET WITH NO
SIGNIFICANT WEATHER AND/OR OBSTRUCTIONS TO VISIBILITY.


SDZ001>005-009-010-012>017-201100-
NORTHWEST AND NORTH CENTRAL SOUTH DAKOTA

CITY           SKY/WX    TMP DP  RH WIND       PRES   REMARKS
BUFFALO          N/A     -1  -7  75 NW10      29.92F WCI -17
FAITH            N/A      0  -2  91 N13       30.01S WCI -18
MOBRIDGE       LGT SNOW   4  -2  76 N16       30.02F WCI -15
$$

SDZ012>016-024>037-041>051-057-063-072>074-201100-
SOUTHWEST AND SOUTH CENTRAL SOUTH DAKOTA

CITY           SKY/WX    TMP DP  RH WIND       PRES   REMARKS
RAPID CTY ARPT LGT SNOW  -2  -7  79 N12       29.99R WCI -20
PIERRE         LGT SNOW   3  -1  83 NW16      30.05R FOG     WCI -16
CUSTER         MOCLDY    -8 -13  78 CALM      29.72R
ELLSWORTH AFB  FLURRIES  -2  -6  84 N9        29.97S WCI -18
PHILIP         FLURRIES   2  -2  83 NW12      30.06R WCI -15
PINE RIDGE     CLOUDY    -1  -6  79 NW6       29.97F WCI -13
SPEARFISH      FLURRIES  -4  -9  77 W6        29.93S WCI -16
WINNER         PTSUNNY    4  -1  80 NW18      30.00R WCI -16
$$

SDZ004>011-016>023-039-040-201100-
NORTHEAST SOUTH DAKOTA

CITY           SKY/WX    TMP DP  RH WIND       PRES   REMARKS
ABERDEEN       LGT SNOW   4   0  83 N15       30.01F FOG     WCI -14
WATERTOWN      LGT SNOW   4   1  88 N9        29.89F FOG     WCI -10
BROOKINGS      LGT SNOW   6   2  83 N9        29.91S FOG     WCI  -8
SISSETON         N/A      5   2  87 N18       29.96F WCI -15
$$

SDZ017-020-022-023-036>040-048>070-201100-
SOUTHEAST SOUTH DAKOTA

CITY           SKY/WX    TMP DP  RH WIND       PRES   REMARKS
SIOUX FALLS    LGT SNOW  10   5  80 N7        29.91S WCI  -1
HURON          MOCLDY     4   0  83 NW14      30.02R WCI -14
CHAMBERLAIN    PTCLDY     5   1  81 NW12      30.00S WCI -11
MITCHELL       FLURRIES   6   1  80 N16       29.99F WCI -12
YANKTON        LGT SNOW   9   6  88 NW15      29.94R FOG     WCI  -8
$$

ABBREVIATIONS USED IN REMARKS
   TC - TEMPERATURE IN CELSIUS
  WCI - WIND CHILL INDEX
   HX - HEAT INDEX
  VSB - VISIBILITY





USA.gov is the U.S. government's official web portal to all federal, state and local government web resources and services.